This is the latest recevied weather packets stored in our database for station/object IK2ILW-6. If no packets are shown the sender has not sent any weather packets the latest 1 day(s).
| Time | Temp. | Humidity | Pressure | Rain* | Wind** | Luminosity | Snow |
|---|---|---|---|---|---|---|---|
| 1778013396 | 3.33° C | 97% | 1013.4 hPa | 2.03 mm | 1.34 m/s, 78° | 0 W/m² | - |
| 1778013100 | 3.33° C | 97% | 1013.4 hPa | 2.03 mm | 0.89 m/s, 178° | 0 W/m² | - |
| 1778012786 | 3.33° C | 97% | 1013.4 hPa | 2.03 mm | 0.45 m/s, 123° | 0 W/m² | - |
| 1778012490 | 3.33° C | 97% | 1013.4 hPa | 2.03 mm | 1.34 m/s, 44° | 0 W/m² | - |
| 1778012197 | 3.33° C | 97% | 1013.4 hPa | 2.03 mm | 0.89 m/s, 53° | 0 W/m² | - |
| 1778011901 | 3.33° C | 97% | 1013.4 hPa | 2.03 mm | 0.45 m/s, 45° | 0 W/m² | - |
| 1778011585 | 3.33° C | 97% | 1013.4 hPa | 2.03 mm | 0.45 m/s, 31° | 0 W/m² | - |
| 1778011289 | 3.33° C | 97% | 1013.5 hPa | 2.03 mm | 0.45 m/s, 13° | 0 W/m² | - |
| 1778010992 | 3.89° C | 96% | 1013.5 hPa | 2.03 mm | 0.89 m/s, 15° | 0 W/m² | - |
| 1778010696 | 3.89° C | 96% | 1013.6 hPa | 1.02 mm | 0.45 m/s, 167° | 0 W/m² | - |
| 1778010401 | 3.33° C | 96% | 1013.5 hPa | 2.03 mm | 0 m/s | 0 W/m² | - |
| 1778010086 | 3.33° C | 96% | 1013.4 hPa | 2.03 mm | 0.89 m/s, 221° | 0 W/m² | - |
| 1778009791 | 3.33° C | 96% | 1013.4 hPa | 2.03 mm | 0.45 m/s, 219° | 0 W/m² | - |
| 1778009494 | 3.33° C | 96% | 1013.4 hPa | 2.03 mm | 0.45 m/s, 219° | 0 W/m² | - |
| 1778009183 | 3.33° C | 96% | 1013.3 hPa | 3.05 mm | 0.45 m/s, 218° | 0 W/m² | - |
| 1778008890 | 3.33° C | 96% | 1013.3 hPa | 3.05 mm | 0.45 m/s, 219° | 0 W/m² | - |
| 1778008594 | 3.33° C | 96% | 1013.2 hPa | 3.05 mm | 0.45 m/s, 215° | 0 W/m² | - |
| 1778008298 | 3.89° C | 96% | 1013.2 hPa | 3.05 mm | 1.79 m/s, 309° | 0 W/m² | - |
| 1778008002 | 3.89° C | 96% | 1013.3 hPa | 3.05 mm | 0.89 m/s, 82° | 0 W/m² | - |
| 1778007687 | 3.89° C | 96% | 1013.3 hPa | 3.05 mm | 0.45 m/s, 155° | 0 W/m² | - |
| 1778007391 | 3.89° C | 96% | 1013.2 hPa | 3.05 mm | 1.79 m/s, 172° | 0 W/m² | - |
| 1778007094 | 3.89° C | 96% | 1013.2 hPa | 4.06 mm | 1.34 m/s, 165° | 0 W/m² | - |
| 1778006798 | 3.89° C | 96% | 1013.2 hPa | 3.05 mm | 2.24 m/s, 150° | 0 W/m² | - |
| 1778006502 | 3.89° C | 96% | 1013.1 hPa | 2.03 mm | 1.34 m/s, 123° | 0 W/m² | - |
| 1778006187 | 3.89° C | 96% | 1013.1 hPa | 2.03 mm | 0.89 m/s, 129° | 0 W/m² | - |
* Rain latest hour (hover to see other rain measurements)
** Current wind speed in m/s (hover to see current wind gust speed)